sat.trackr.live / text

‹ back to catalog

STARLINK-32365

NORAD 61625 · 2024-191E

PAYLOAD ACTIVE UNKNOWN

§ Identity

Operator
Country
US
Launch date
2024-10-23
Launch site
AFETR
Launch vehicle
Mass (kg)
RCS (m²)

Purposes: comms

External: N2YO · Heavens-Above · Gunter

§ Orbital elements

Epoch: 2026-09-21T08:32:43.770624Z

Period
94.27 min
Inclination
43.0064°
Eccentricity
0.0002003
Mean motion
15.27573831 rev/d
Perigee alt
481.7 km
Apogee alt
484.4 km
Semi-major
6,861.2 km
B*
2.2006e-5
RAAN
129.2563°
Arg perigee
260.4492°
Mean anomaly
99.6133°
Rev number
10,746

§ Raw data

STARLINK-323651 61625U 24191E   26264.35606216  .00000343  00000+0  22006-4 0  99992 61625  43.0064 129.2563 0002003 260.4492  99.6133 15.27573831107460

JSON: /api/v1/satellites/61625 · /tle

For live sub-satellite position, see the globe view (requires WebGL).

§ Visibility from observer

Set your observer location to see the next 7 days of passes ≥ 10°. The values pass through the URL so the page stays shareable.

No JS? Fill the form by hand. The geolocation button needs JavaScript.